Weather in Bahia Blanca

Argentina     38°43′29″S   62°15′36″W
temp.,
°C
wind,
m/s
gust,
m/s
humid.,
%
clouds,
%
prec.,
mm/h
press.,
hPa
HPBL,
m
7 may, fri
fri700:00+10nne34504 0.0 102470
03:00+9n23495 0.0 102452
06:00+8n23475 0.0 102461
09:00+9nne24508 0.0 102598
12:00+16ne23325 0.0 1024648
15:00+19nnw24305 0.0 10221425
18:00+16n37425 0.0 1022259
21:00+12n375835 0.0 1023175
8 may, sat
sat800:00+11nne3763100 0.0 1023223
03:00+10nne31062100 0.0 1023330
06:00+10nne31159100 0.0 1022387
09:00+11nne41158100 0.0 1023424
12:00+17n71138100 0.0 10231002
15:00+19n711315 0.0 10201214
18:00+16n6104382 0.0 1020761
21:00+13n41355100 0.0 1021571
9 may, sun
sun900:00+14n51453100 0.0 1020585
03:00+14nnw6155557 0.0 1020601
06:00+13nnw61458100 0.0 1019498
09:00+13nnw51259100 0.0 1019444
12:00+17nw6946100 0.0 1019762
15:00+18nw6842100 0.0 1017934
18:00+17nw3649100 0.0 1017241
21:00+14sse610622 0.0 1020683
10 may, mon
mon1000:00+13ssw365124 0.0 1022464
03:00+10sw511500 0.0 1023403
06:00+8wsw412665 0.0 1025441
09:00+8wsw512661 0.0 1026559
12:00+14ssw79392 0.0 10271576
15:00+16ssw69325 0.0 10251933
18:00+14sw48340 0.0 1025665
21:00+11sw38430 0.0 1026213
11 may, tue
tue1100:00+9sw24550 0.0 1026103
03:00+8w34600 0.0 102691
06:00+7wnw23570 0.0 102676
09:00+7nnw22460 0.0 102683
12:00+14nw23290 0.0 1026549
15:00+17nw23230 0.0 10231023
18:00+14nnw34290 0.0 102260
21:00+11nnw49410 0.0 1022188